Charleston, SC

11:54 AM EDT on June 28, 2017 (GMT -0400)
Charleston Executive

Weather History for KJZI - July, 2013

Change the Weather History Date:

Tuesday, July 23, 2013

  Actual Average (KCHS) Record (KCHS)
Temperature  
Mean Temperature 84 °F -  
Max Temperature 91 °F 90 °F 99 °F (1952)
Min Temperature 77 °F 72 °F 60 °F (1966)
Cooling Degree Days 19    
Growing Degree Days 34 (Base 50)    
Moisture  
Dew Point 72 °F    
Average Humidity 71    
Maximum Humidity 83    
Minimum Humidity 49    
Precipitation  
Precipitation 0.00 in - - ()
Sea Level Pressure  
Sea Level Pressure 29.90 in    
Wind  
Wind Speed 7 mph (WSW)    
Max Wind Speed 13 mph    
Max Gust Speed 20 mph    
Visibility 10 miles    
Events      
Averages and records for this station are not official NWS values.
T = Trace of Precipitation, MM = Missing Value Source: NWS Daily Summary

Daily Weather History Graph

Daily Weather History Graph

Search for Another Location

Airport or City:

Trip Planner

Search our weather history database for the weather conditions in past years. The results will help you decide how hot, cold, wet, or windy it might be!

Date:

Astronomy

Jul. 23, 2013 Rise Set
Actual Time 6:28 AM EDT 8:24 PM EDT
Civil Twilight 6:00 AM EDT 8:51 PM EDT
Nautical Twilight 5:27 AM EDT 9:25 PM EDT
Astronomical Twilight 4:51 AM EDT 10:00 PM EDT
Moon 9:00 PM EDT (7/23) 7:28 AM EDT (7/23)
Length of Visible Light 14h 51m
Length of Day
13h 56m
Full, 99% of the Moon is Illuminated
Jul 23
Full
Jul 29
Last Quarter
Aug 6
New
Aug 14
First Quarter
Aug 20
Full

Hourly Weather History & Observations

Time (EDT) Temp. Heat Index Dew Point Humidity Pressure Visibility Wind Dir Wind Speed Gust Speed Precip Events Conditions
12:15 AM 78.8 °F - 73.4 °F 83% 29.96 in 10.0 mi SW 6.9 mph - 0.00 in   Unknown
12:35 AM 78.8 °F - 73.4 °F 83% 29.96 in 10.0 mi SW 6.9 mph - 0.00 in   Unknown
12:55 AM 78.8 °F - 73.4 °F 83% 29.96 in 10.0 mi SW 6.9 mph - 0.00 in   Unknown
1:15 AM 78.8 °F - 73.4 °F 83% 29.96 in 10.0 mi SW 6.9 mph - 0.00 in   Unknown
1:35 AM 78.8 °F - 73.4 °F 83% 29.95 in 10.0 mi SW 9.2 mph - 0.00 in   Unknown
1:55 AM 78.8 °F - 73.4 °F 83% 29.95 in 10.0 mi SW 6.9 mph - 0.00 in   Unknown
2:15 AM 78.8 °F - 73.4 °F 83% 29.94 in 10.0 mi SW 9.2 mph - 0.00 in   Unknown
2:35 AM 78.8 °F - 73.4 °F 83% 29.94 in 10.0 mi WSW 10.4 mph - 0.00 in   Unknown
2:55 AM 78.8 °F - 73.4 °F 83% 29.94 in 10.0 mi WSW 10.4 mph - 0.00 in   Unknown
3:15 AM 78.8 °F - 71.6 °F 78% 29.93 in 10.0 mi SW 6.9 mph - 0.00 in   Unknown
3:35 AM 78.8 °F - 71.6 °F 78% 29.93 in 10.0 mi WSW 8.1 mph - 0.00 in   Unknown
3:55 AM 78.8 °F - 71.6 °F 78% 29.93 in 10.0 mi WSW 4.6 mph - 0.00 in   Unknown
4:15 AM 78.8 °F - 71.6 °F 78% 29.93 in 10.0 mi WSW 8.1 mph 16.1 mph 0.00 in   Unknown
4:35 AM 78.8 °F - 71.6 °F 78% 29.93 in 10.0 mi SW 6.9 mph - 0.00 in   Unknown
4:55 AM 78.8 °F - 71.6 °F 78% 29.93 in 10.0 mi SW 5.8 mph - 0.00 in   Unknown
5:15 AM 77.0 °F - 71.6 °F 83% 29.93 in 10.0 mi SW 8.1 mph - 0.00 in   Unknown
5:35 AM 77.0 °F - 71.6 °F 83% 29.93 in 10.0 mi SW 5.8 mph - 0.00 in   Unknown
5:55 AM 77.0 °F - 71.6 °F 83% 29.94 in 10.0 mi SW 5.8 mph - 0.00 in   Unknown
6:15 AM 77.0 °F - 71.6 °F 83% 29.94 in 10.0 mi WSW 8.1 mph - 0.00 in   Unknown
6:35 AM 77.0 °F - 71.6 °F 83% 29.94 in 10.0 mi WSW 5.8 mph - 0.00 in   Unknown
6:55 AM 77.0 °F - 71.6 °F 83% 29.94 in 10.0 mi WSW 8.1 mph - 0.00 in   Unknown
7:15 AM 77.0 °F - 71.6 °F 83% 29.94 in 10.0 mi WSW 6.9 mph - 0.00 in   Unknown
7:35 AM 78.8 °F - 71.6 °F 78% 29.94 in 10.0 mi WSW 8.1 mph - 0.00 in   Unknown
7:55 AM 78.8 °F - 71.6 °F 78% 29.94 in 10.0 mi WSW 6.9 mph - 0.00 in   Unknown
8:15 AM 78.8 °F - 71.6 °F 78% 29.94 in 10.0 mi WSW 6.9 mph 16.1 mph 0.00 in   Unknown
8:35 AM 80.6 °F 84.6 °F 71.6 °F 74% 29.93 in 10.0 mi WSW 11.5 mph - 0.00 in   Unknown
8:55 AM 80.6 °F 84.6 °F 71.6 °F 74% 29.93 in 10.0 mi WSW 12.7 mph - 0.00 in   Unknown
9:15 AM 80.6 °F 84.6 °F 71.6 °F 74% 29.93 in 10.0 mi WSW 8.1 mph 16.1 mph 0.00 in   Unknown
9:35 AM 80.6 °F 84.6 °F 71.6 °F 74% 29.93 in 10.0 mi WSW 8.1 mph - 0.00 in   Unknown
9:55 AM 80.6 °F 85.4 °F 73.4 °F 79% 29.93 in 10.0 mi WSW 5.8 mph - 0.00 in   Unknown
10:15 AM 82.4 °F 87.2 °F 71.6 °F 70% 29.92 in 10.0 mi West 8.1 mph - 0.00 in   Unknown
10:35 AM 82.4 °F 88.2 °F 73.4 °F 74% 29.92 in 10.0 mi WSW 5.8 mph - 0.00 in   Unknown
10:55 AM 82.4 °F 88.2 °F 73.4 °F 74% 29.92 in 10.0 mi WSW 5.8 mph - 0.00 in   Unknown
11:15 AM 84.2 °F 89.6 °F 71.6 °F 66% 29.92 in 10.0 mi WSW 6.9 mph - 0.00 in   Unknown
11:35 AM 82.4 °F 87.2 °F 71.6 °F 70% 29.92 in 10.0 mi WSW 11.5 mph - 0.00 in   Unknown
11:55 AM 84.2 °F 90.9 °F 73.4 °F 70% 29.92 in 10.0 mi WSW 6.9 mph - 0.00 in   Unknown
12:15 PM 82.4 °F 87.2 °F 71.6 °F 70% 29.92 in 10.0 mi WSW 10.4 mph - 0.00 in   Unknown
12:35 PM 86.0 °F 93.4 °F 73.4 °F 66% 29.92 in 10.0 mi West 10.4 mph - 0.00 in   Unknown
12:55 PM 86.0 °F 93.4 °F 73.4 °F 66% 29.91 in 10.0 mi WSW 9.2 mph - 0.00 in   Unknown
1:15 PM 87.8 °F 93.8 °F 71.6 °F 58% 29.90 in 10.0 mi WSW 10.4 mph 19.6 mph 0.00 in   Unknown
1:35 PM 87.8 °F 93.8 °F 71.6 °F 58% 29.89 in 10.0 mi WSW 9.2 mph - 0.00 in   Unknown
1:55 PM 87.8 °F 93.8 °F 71.6 °F 58% 29.89 in 10.0 mi West 11.5 mph 16.1 mph 0.00 in   Unknown
2:15 PM 87.8 °F 93.8 °F 71.6 °F 58% 29.88 in 10.0 mi WSW 11.5 mph - 0.00 in   Unknown
2:35 PM 87.8 °F 93.8 °F 71.6 °F 58% 29.87 in 10.0 mi WSW 12.7 mph 17.3 mph 0.00 in   Unknown
2:55 PM 89.6 °F 96.2 °F 71.6 °F 55% 29.87 in 10.0 mi West 11.5 mph 16.1 mph 0.00 in   Unknown
3:15 PM 89.6 °F 96.2 °F 71.6 °F 55% 29.86 in 10.0 mi West 9.2 mph - 0.00 in   Unknown
3:35 PM 87.8 °F 93.8 °F 71.6 °F 58% 29.85 in 10.0 mi West 10.4 mph - 0.00 in   Unknown
4:15 PM 91.4 °F 98.4 °F 71.6 °F 52% 29.85 in 10.0 mi West 6.9 mph - 0.00 in   Unknown
4:35 PM 89.6 °F 94.7 °F 69.8 °F 52% 29.84 in 10.0 mi West 11.5 mph - 0.00 in   Unknown
4:55 PM 91.4 °F 98.4 °F 71.6 °F 52% 29.84 in 10.0 mi WNW 11.5 mph 17.3 mph 0.00 in   Unknown
5:15 PM 91.4 °F 98.4 °F 71.6 °F 52% 29.84 in 10.0 mi West 9.2 mph - 0.00 in   Unknown
5:35 PM 91.4 °F 96.8 °F 69.8 °F 49% 29.83 in 10.0 mi West 9.2 mph - 0.00 in   Unknown
5:55 PM 89.6 °F 94.7 °F 69.8 °F 52% 29.83 in 10.0 mi WSW 8.1 mph - 0.00 in   Unknown
6:15 PM 89.6 °F 96.2 °F 71.6 °F 55% 29.83 in 10.0 mi WSW 5.8 mph - 0.00 in   Unknown
6:35 PM 87.8 °F 93.8 °F 71.6 °F 58% 29.82 in 10.0 mi WSW 4.6 mph - 0.00 in   Unknown
6:55 PM 89.6 °F 96.2 °F 71.6 °F 55% 29.82 in 10.0 mi West 3.5 mph - 0.00 in   Unknown
7:15 PM 89.6 °F 96.2 °F 71.6 °F 55% 29.83 in 10.0 mi WSW 5.8 mph - 0.00 in   Unknown
7:35 PM 87.8 °F 95.6 °F 73.4 °F 62% 29.83 in 10.0 mi WSW 4.6 mph - 0.00 in   Unknown
7:55 PM 86.0 °F 93.4 °F 73.4 °F 66% 29.83 in 10.0 mi SW 3.5 mph - 0.00 in   Unknown
8:15 PM 84.2 °F 90.9 °F 73.4 °F 70% 29.82 in 10.0 mi Calm Calm - 0.00 in   Unknown
8:35 PM 84.2 °F 90.9 °F 73.4 °F 70% 29.83 in 10.0 mi Calm Calm - 0.00 in   Unknown
8:55 PM 82.4 °F 88.2 °F 73.4 °F 74% 29.84 in 10.0 mi Calm Calm - 0.00 in   Unknown
9:15 PM 82.4 °F 88.2 °F 73.4 °F 74% 29.85 in 10.0 mi WSW 4.6 mph - 0.00 in   Unknown
9:35 PM 82.4 °F 88.2 °F 73.4 °F 74% 29.86 in 10.0 mi SW 4.6 mph - 0.00 in   Unknown
9:55 PM 82.4 °F 88.2 °F 73.4 °F 74% 29.86 in 10.0 mi WSW 5.8 mph - 0.00 in   Unknown
10:15 PM 82.4 °F 88.2 °F 73.4 °F 74% 29.86 in 10.0 mi SW 4.6 mph - 0.00 in   Unknown
10:35 PM 82.4 °F 88.2 °F 73.4 °F 74% 29.86 in 10.0 mi Calm Calm - 0.00 in   Unknown
10:55 PM 80.6 °F 85.4 °F 73.4 °F 79% 29.86 in 10.0 mi SSW 4.6 mph - 0.00 in   Unknown
11:15 PM 80.6 °F 85.4 °F 73.4 °F 79% 29.86 in 10.0 mi Calm Calm - 0.00 in   Unknown
11:35 PM 80.6 °F 85.4 °F 73.4 °F 79% 29.86 in 10.0 mi SW 3.5 mph - 0.00 in   Unknown
11:55 PM 80.6 °F 85.4 °F 73.4 °F 79% 29.86 in 10.0 mi WSW 3.5 mph - 0.00 in   Unknown